owner,sensor,date,latitude,longitude,sea_surface_height_above_sea_level,qcFlag 
COMPS,ioos:station:USF.COMPS:ARP:1,2008-06-01T00:00:00Z,28.4330,-82.6670,-0.494,1111122 
COMPS,ioos:station:USF.COMPS:ARP:1,2008-06-01T00:06:00Z,28.4330,-82.6670,-0.486,1111122 
COMPS,ioos:station:USF.COMPS:ARP:1,2008-06-01T00:12:00Z,28.4330,-82.6670,-0.477,1111122 
COMPS,ioos:station:USF.COMPS:ARP:1,2008-06-01T00:18:00Z,28.4330,-82.6670,-0.467,1111122 
COMPS,ioos:station:USF.COMPS:ARP:1,2008-06-01T00:24:00Z,28.4330,-82.6670,-0.454,1111122 
COMPS,ioos:station:USF.COMPS:ARP:1,2008-06-01T00:30:00Z,28.4330,-82.6670,-0.441,1111122 
COMPS,ioos:station:USF.COMPS:ARP:1,2008-06-01T00:36:00Z,28.4330,-82.6670,-0.427,1111122 
COMPS,ioos:station:USF.COMPS:ARP:1,2008-06-01T00:42:00Z,28.4330,-82.6670,-0.412,1111122 
COMPS,ioos:station:USF.COMPS:ARP:1,2008-06-01T00:48:00Z,28.4330,-82.6670,-0.394,1111122 
COMPS,ioos:station:USF.COMPS:ARP:1,2008-06-01T00:54:00Z,28.4330,-82.6670,-0.375,1111122 
COMPS,ioos:station:USF.COMPS:ARP:1,2008-06-01T01:00:00Z,28.4330,-82.6670,-0.354,1111122 
COMPS,ioos:station:USF.COMPS:ARP:1,2008-06-01T01:06:00Z,28.4330,-82.6670,-0.332,1111122 
COMPS,ioos:station:USF.COMPS:ARP:1,2008-06-01T01:12:00Z,28.4330,-82.6670,-0.31,1111122 
COMPS,ioos:station:USF.COMPS:ARP:1,2008-06-01T01:18:00Z,28.4330,-82.6670,-0.287,1111122 
COMPS,ioos:station:USF.COMPS:ARP:1,2008-06-01T01:24:00Z,28.4330,-82.6670,-0.263,1111122 
COMPS,ioos:station:USF.COMPS:ARP:1,2008-06-01T01:30:00Z,28.4330,-82.6670,-0.237,1111122 
COMPS,ioos:station:USF.COMPS:ARP:1,2008-06-01T01:36:00Z,28.4330,-82.6670,-0.212,1111122 
COMPS,ioos:station:USF.COMPS:ARP:1,2008-06-01T01:42:00Z,28.4330,-82.6670,-0.185,1111122 
COMPS,ioos:station:USF.COMPS:ARP:1,2008-06-01T01:48:00Z,28.4330,-82.6670,-0.16,1111122 
COMPS,ioos:station:USF.COMPS:ARP:1,2008-06-01T01:54:00Z,28.4330,-82.6670,-0.135,1111122 
COMPS,ioos:station:USF.COMPS:ARP:1,2008-06-01T02:00:00Z,28.4330,-82.6670,-0.109,1111122 
COMPS,ioos:station:USF.COMPS:ARP:1,2008-06-01T02:06:00Z,28.4330,-82.6670,-0.084,1111122 
COMPS,ioos:station:USF.COMPS:ARP:1,2008-06-01T02:12:00Z,28.4330,-82.6670,-0.057,1111122 
COMPS,ioos:station:USF.COMPS:ARP:1,2008-06-01T02:18:00Z,28.4330,-82.6670,-0.033,1111122 
COMPS,ioos:station:USF.COMPS:ARP:1,2008-06-01T02:24:00Z,28.4330,-82.6670,-0.01,1111122 
COMPS,ioos:station:USF.COMPS:ARP:1,2008-06-01T02:30:00Z,28.4330,-82.6670,0.013,1111122 
COMPS,ioos:station:USF.COMPS:ARP:1,2008-06-01T02:36:00Z,28.4330,-82.6670,0.036,1111122 
COMPS,ioos:station:USF.COMPS:ARP:1,2008-06-01T02:42:00Z,28.4330,-82.6670,0.056,1111122 
COMPS,ioos:station:USF.COMPS:ARP:1,2008-06-01T02:48:00Z,28.4330,-82.6670,0.076,1111122 
COMPS,ioos:station:USF.COMPS:ARP:1,2008-06-01T02:54:00Z,28.4330,-82.6670,0.096,1111122 
COMPS,ioos:station:USF.COMPS:ARP:1,2008-06-01T03:00:00Z,28.4330,-82.6670,0.114,1111122 
COMPS,ioos:station:USF.COMPS:ARP:1,2008-06-01T03:06:00Z,28.4330,-82.6670,0.133,1111122 
COMPS,ioos:station:USF.COMPS:ARP:1,2008-06-01T03:12:00Z,28.4330,-82.6670,0.15,1111122 
COMPS,ioos:station:USF.COMPS:ARP:1,2008-06-01T03:18:00Z,28.4330,-82.6670,0.165,1111122 
COMPS,ioos:station:USF.COMPS:ARP:1,2008-06-01T03:24:00Z,28.4330,-82.6670,0.18,1111122 
COMPS,ioos:station:USF.COMPS:ARP:1,2008-06-01T03:30:00Z,28.4330,-82.6670,0.195,1111122 
COMPS,ioos:station:USF.COMPS:ARP:1,2008-06-01T03:36:00Z,28.4330,-82.6670,0.208,1111122 
COMPS,ioos:station:USF.COMPS:ARP:1,2008-06-01T03:42:00Z,28.4330,-82.6670,0.22,1111122 
COMPS,ioos:station:USF.COMPS:ARP:1,2008-06-01T03:48:00Z,28.4330,-82.6670,0.228,1111122 
COMPS,ioos:station:USF.COMPS:ARP:1,2008-06-01T03:54:00Z,28.4330,-82.6670,0.237,1111122 
COMPS,ioos:station:USF.COMPS:ARP:1,2008-06-01T04:00:00Z,28.4330,-82.6670,0.244,1111122 
COMPS,ioos:station:USF.COMPS:ARP:1,2008-06-01T04:06:00Z,28.4330,-82.6670,0.249,1111122 
COMPS,ioos:station:USF.COMPS:ARP:1,2008-06-01T04:12:00Z,28.4330,-82.6670,0.251,1111122 
COMPS,ioos:station:USF.COMPS:ARP:1,2008-06-01T04:18:00Z,28.4330,-82.6670,0.259,1111122 
COMPS,ioos:station:USF.COMPS:ARP:1,2008-06-01T04:24:00Z,28.4330,-82.6670,0.26,1111122 
COMPS,ioos:station:USF.COMPS:ARP:1,2008-06-01T04:30:00Z,28.4330,-82.6670,0.261,1111122 
COMPS,ioos:station:USF.COMPS:ARP:1,2008-06-01T04:36:00Z,28.4330,-82.6670,0.26,1111122 
COMPS,ioos:station:USF.COMPS:ARP:1,2008-06-01T04:42:00Z,28.4330,-82.6670,0.257,1111122 
COMPS,ioos:station:USF.COMPS:ARP:1,2008-06-01T04:48:00Z,28.4330,-82.6670,0.249,1111122 
COMPS,ioos:station:USF.COMPS:ARP:1,2008-06-01T04:54:00Z,28.4330,-82.6670,0.238,1111122 
COMPS,ioos:station:USF.COMPS:ARP:1,2008-06-01T05:00:00Z,28.4330,-82.6670,0.224,1111122 
COMPS,ioos:station:USF.COMPS:ARP:1,2008-06-01T05:06:00Z,28.4330,-82.6670,0.224,1111122 
COMPS,ioos:station:USF.COMPS:ARP:1,2008-06-01T05:12:00Z,28.4330,-82.6670,0.211,1111122 
COMPS,ioos:station:USF.COMPS:ARP:1,2008-06-01T05:18:00Z,28.4330,-82.6670,0.201,1111122 
COMPS,ioos:station:USF.COMPS:ARP:1,2008-06-01T05:24:00Z,28.4330,-82.6670,0.185,1111122 
COMPS,ioos:station:USF.COMPS:ARP:1,2008-06-01T05:30:00Z,28.4330,-82.6670,0.177,1111122 
COMPS,ioos:station:USF.COMPS:ARP:1,2008-06-01T05:36:00Z,28.4330,-82.6670,0.165,1111122 
COMPS,ioos:station:USF.COMPS:ARP:1,2008-06-01T05:42:00Z,28.4330,-82.6670,0.154,1111122 
COMPS,ioos:station:USF.COMPS:ARP:1,2008-06-01T05:48:00Z,28.4330,-82.6670,0.145,1111122 
COMPS,ioos:station:USF.COMPS:ARP:1,2008-06-01T05:54:00Z,28.4330,-82.6670,0.129,1111122 
COMPS,ioos:station:USF.COMPS:ARP:1,2008-06-01T06:00:00Z,28.4330,-82.6670,0.122,1111122 
COMPS,ioos:station:USF.COMPS:ARP:1,2008-06-01T06:06:00Z,28.4330,-82.6670,0.11,1111122 
COMPS,ioos:station:USF.COMPS:ARP:1,2008-06-01T06:12:00Z,28.4330,-82.6670,0.101,1111122 
COMPS,ioos:station:USF.COMPS:ARP:1,2008-06-01T06:18:00Z,28.4330,-82.6670,0.084,1111122 
COMPS,ioos:station:USF.COMPS:ARP:1,2008-06-01T06:24:00Z,28.4330,-82.6670,0.07,1111122 
COMPS,ioos:station:USF.COMPS:ARP:1,2008-06-01T06:30:00Z,28.4330,-82.6670,0.058,1111122 
COMPS,ioos:station:USF.COMPS:ARP:1,2008-06-01T06:36:00Z,28.4330,-82.6670,0.043,1111122 
COMPS,ioos:station:USF.COMPS:ARP:1,2008-06-01T06:42:00Z,28.4330,-82.6670,0.027,1111122 
COMPS,ioos:station:USF.COMPS:ARP:1,2008-06-01T06:48:00Z,28.4330,-82.6670,0.014,1111122 
COMPS,ioos:station:USF.COMPS:ARP:1,2008-06-01T06:54:00Z,28.4330,-82.6670,0.0,1114422 
COMPS,ioos:station:USF.COMPS:ARP:1,2008-06-01T07:00:00Z,28.4330,-82.6670,-0.015,1111122 
COMPS,ioos:station:USF.COMPS:ARP:1,2008-06-01T07:06:00Z,28.4330,-82.6670,-0.028,1111122 
COMPS,ioos:station:USF.COMPS:ARP:1,2008-06-01T07:12:00Z,28.4330,-82.6670,-0.042,1111122 
COMPS,ioos:station:USF.COMPS:ARP:1,2008-06-01T07:18:00Z,28.4330,-82.6670,-0.056,1111122 
COMPS,ioos:station:USF.COMPS:ARP:1,2008-06-01T07:24:00Z,28.4330,-82.6670,-0.07,1111122 
COMPS,ioos:station:USF.COMPS:ARP:1,2008-06-01T07:30:00Z,28.4330,-82.6670,-0.085,1111122 
COMPS,ioos:station:USF.COMPS:ARP:1,2008-06-01T07:36:00Z,28.4330,-82.6670,-0.1,1111122 
COMPS,ioos:station:USF.COMPS:ARP:1,2008-06-01T07:42:00Z,28.4330,-82.6670,-0.113,1111122 
COMPS,ioos:station:USF.COMPS:ARP:1,2008-06-01T07:48:00Z,28.4330,-82.6670,-0.127,1111122 
COMPS,ioos:station:USF.COMPS:ARP:1,2008-06-01T07:54:00Z,28.4330,-82.6670,-0.14,1111122 
COMPS,ioos:station:USF.COMPS:ARP:1,2008-06-01T08:00:00Z,28.4330,-82.6670,-0.153,1111122 
COMPS,ioos:station:USF.COMPS:ARP:1,2008-06-01T08:06:00Z,28.4330,-82.6670,-0.167,1111122 
COMPS,ioos:station:USF.COMPS:ARP:1,2008-06-01T08:12:00Z,28.4330,-82.6670,-0.18,1111122 
COMPS,ioos:station:USF.COMPS:ARP:1,2008-06-01T08:18:00Z,28.4330,-82.6670,-0.192,1111122 
COMPS,ioos:station:USF.COMPS:ARP:1,2008-06-01T08:24:00Z,28.4330,-82.6670,-0.205,1111122 
COMPS,ioos:station:USF.COMPS:ARP:1,2008-06-01T08:30:00Z,28.4330,-82.6670,-0.218,1111122 
COMPS,ioos:station:USF.COMPS:ARP:1,2008-06-01T08:36:00Z,28.4330,-82.6670,-0.229,1111122 
COMPS,ioos:station:USF.COMPS:ARP:1,2008-06-01T08:42:00Z,28.4330,-82.6670,-0.24,1111122 
COMPS,ioos:station:USF.COMPS:ARP:1,2008-06-01T08:48:00Z,28.4330,-82.6670,-0.251,1111122 
COMPS,ioos:station:USF.COMPS:ARP:1,2008-06-01T08:54:00Z,28.4330,-82.6670,-0.261,1111122 
COMPS,ioos:station:USF.COMPS:ARP:1,2008-06-01T09:00:00Z,28.4330,-82.6670,-0.272,1111122 
COMPS,ioos:station:USF.COMPS:ARP:1,2008-06-01T09:06:00Z,28.4330,-82.6670,-0.283,1111122 
COMPS,ioos:station:USF.COMPS:ARP:1,2008-06-01T09:12:00Z,28.4330,-82.6670,-0.292,1111122 
COMPS,ioos:station:USF.COMPS:ARP:1,2008-06-01T09:18:00Z,28.4330,-82.6670,-0.3,1111122 
COMPS,ioos:station:USF.COMPS:ARP:1,2008-06-01T09:24:00Z,28.4330,-82.6670,-0.309,1111122 
COMPS,ioos:station:USF.COMPS:ARP:1,2008-06-01T09:30:00Z,28.4330,-82.6670,-0.317,1111122 
COMPS,ioos:station:USF.COMPS:ARP:1,2008-06-01T09:36:00Z,28.4330,-82.6670,-0.325,1111122 
COMPS,ioos:station:USF.COMPS:ARP:1,2008-06-01T09:42:00Z,28.4330,-82.6670,-0.332,1111122 
COMPS,ioos:station:USF.COMPS:ARP:1,2008-06-01T09:48:00Z,28.4330,-82.6670,-0.337,1111122 
COMPS,ioos:station:USF.COMPS:ARP:1,2008-06-01T09:54:00Z,28.4330,-82.6670,-0.342,1111122 
COMPS,ioos:station:USF.COMPS:ARP:1,2008-06-01T10:00:00Z,28.4330,-82.6670,-0.344,1111122 
COMPS,ioos:station:USF.COMPS:ARP:1,2008-06-01T10:06:00Z,28.4330,-82.6670,-0.341,1111122 
COMPS,ioos:station:USF.COMPS:ARP:1,2008-06-01T10:12:00Z,28.4330,-82.6670,-0.338,1111122 
COMPS,ioos:station:USF.COMPS:ARP:1,2008-06-01T10:18:00Z,28.4330,-82.6670,-0.33,1111122 
COMPS,ioos:station:USF.COMPS:ARP:1,2008-06-01T10:24:00Z,28.4330,-82.6670,-0.32,1111122 
COMPS,ioos:station:USF.COMPS:ARP:1,2008-06-01T10:30:00Z,28.4330,-82.6670,-0.314,1111122 
COMPS,ioos:station:USF.COMPS:ARP:1,2008-06-01T10:36:00Z,28.4330,-82.6670,-0.305,1111122 
COMPS,ioos:station:USF.COMPS:ARP:1,2008-06-01T10:42:00Z,28.4330,-82.6670,-0.298,1111122 
COMPS,ioos:station:USF.COMPS:ARP:1,2008-06-01T10:48:00Z,28.4330,-82.6670,-0.293,1111122 
COMPS,ioos:station:USF.COMPS:ARP:1,2008-06-01T10:54:00Z,28.4330,-82.6670,-0.284,1111122 
COMPS,ioos:station:USF.COMPS:ARP:1,2008-06-01T11:00:00Z,28.4330,-82.6670,-0.274,1111122 
COMPS,ioos:station:USF.COMPS:ARP:1,2008-06-01T11:06:00Z,28.4330,-82.6670,-0.265,1111122 
COMPS,ioos:station:USF.COMPS:ARP:1,2008-06-01T11:12:00Z,28.4330,-82.6670,-0.255,1111122 
COMPS,ioos:station:USF.COMPS:ARP:1,2008-06-01T11:18:00Z,28.4330,-82.6670,-0.243,1111122 
COMPS,ioos:station:USF.COMPS:ARP:1,2008-06-01T11:24:00Z,28.4330,-82.6670,-0.229,1111122 
COMPS,ioos:station:USF.COMPS:ARP:1,2008-06-01T11:30:00Z,28.4330,-82.6670,-0.214,1111122 
COMPS,ioos:station:USF.COMPS:ARP:1,2008-06-01T11:36:00Z,28.4330,-82.6670,-0.199,1111122 
COMPS,ioos:station:USF.COMPS:ARP:1,2008-06-01T11:42:00Z,28.4330,-82.6670,-0.182,1111122 
COMPS,ioos:station:USF.COMPS:ARP:1,2008-06-01T11:48:00Z,28.4330,-82.6670,-0.164,1111122 
COMPS,ioos:station:USF.COMPS:ARP:1,2008-06-01T11:54:00Z,28.4330,-82.6670,-0.145,1111122 
COMPS,ioos:station:USF.COMPS:ARP:1,2008-06-01T12:00:00Z,28.4330,-82.6670,-0.127,1111122 
COMPS,ioos:station:USF.COMPS:ARP:1,2008-06-01T12:06:00Z,28.4330,-82.6670,-0.107,1111122 
COMPS,ioos:station:USF.COMPS:ARP:1,2008-06-01T12:12:00Z,28.4330,-82.6670,-0.085,1111122 
COMPS,ioos:station:USF.COMPS:ARP:1,2008-06-01T12:18:00Z,28.4330,-82.6670,-0.065,1111122 
COMPS,ioos:station:USF.COMPS:ARP:1,2008-06-01T12:24:00Z,28.4330,-82.6670,-0.042,1111122 
COMPS,ioos:station:USF.COMPS:ARP:1,2008-06-01T12:30:00Z,28.4330,-82.6670,-0.017,1111122 
COMPS,ioos:station:USF.COMPS:ARP:1,2008-06-01T12:36:00Z,28.4330,-82.6670,0.006,1111122 
COMPS,ioos:station:USF.COMPS:ARP:1,2008-06-01T12:42:00Z,28.4330,-82.6670,0.032,1111122 
COMPS,ioos:station:USF.COMPS:ARP:1,2008-06-01T12:48:00Z,28.4330,-82.6670,0.057,1111122 
COMPS,ioos:station:USF.COMPS:ARP:1,2008-06-01T12:54:00Z,28.4330,-82.6670,0.08,1111122 
COMPS,ioos:station:USF.COMPS:ARP:1,2008-06-01T13:00:00Z,28.4330,-82.6670,0.103,1111122 
COMPS,ioos:station:USF.COMPS:ARP:1,2008-06-01T13:06:00Z,28.4330,-82.6670,0.127,1111122 
COMPS,ioos:station:USF.COMPS:ARP:1,2008-06-01T13:12:00Z,28.4330,-82.6670,0.15,1111122 
COMPS,ioos:station:USF.COMPS:ARP:1,2008-06-01T13:18:00Z,28.4330,-82.6670,0.172,1111122 
COMPS,ioos:station:USF.COMPS:ARP:1,2008-06-01T13:24:00Z,28.4330,-82.6670,0.197,1111122 
COMPS,ioos:station:USF.COMPS:ARP:1,2008-06-01T13:30:00Z,28.4330,-82.6670,0.219,1111122 
COMPS,ioos:station:USF.COMPS:ARP:1,2008-06-01T13:36:00Z,28.4330,-82.6670,0.24,1111122 
COMPS,ioos:station:USF.COMPS:ARP:1,2008-06-01T13:42:00Z,28.4330,-82.6670,0.262,1111122 
COMPS,ioos:station:USF.COMPS:ARP:1,2008-06-01T13:48:00Z,28.4330,-82.6670,0.283,1111122 
COMPS,ioos:station:USF.COMPS:ARP:1,2008-06-01T13:54:00Z,28.4330,-82.6670,0.306,1111122 
COMPS,ioos:station:USF.COMPS:ARP:1,2008-06-01T14:00:00Z,28.4330,-82.6670,0.327,1111122 
COMPS,ioos:station:USF.COMPS:ARP:1,2008-06-01T14:06:00Z,28.4330,-82.6670,0.352,1111122 
COMPS,ioos:station:USF.COMPS:ARP:1,2008-06-01T14:12:00Z,28.4330,-82.6670,0.373,1111122 
COMPS,ioos:station:USF.COMPS:ARP:1,2008-06-01T14:18:00Z,28.4330,-82.6670,0.393,1111122 
COMPS,ioos:station:USF.COMPS:ARP:1,2008-06-01T14:24:00Z,28.4330,-82.6670,0.412,1111122 
COMPS,ioos:station:USF.COMPS:ARP:1,2008-06-01T14:30:00Z,28.4330,-82.6670,0.428,1111122 
COMPS,ioos:station:USF.COMPS:ARP:1,2008-06-01T14:36:00Z,28.4330,-82.6670,0.443,1111122 
COMPS,ioos:station:USF.COMPS:ARP:1,2008-06-01T14:42:00Z,28.4330,-82.6670,0.459,1111122 
COMPS,ioos:station:USF.COMPS:ARP:1,2008-06-01T14:48:00Z,28.4330,-82.6670,0.476,1111122 
COMPS,ioos:station:USF.COMPS:ARP:1,2008-06-01T14:54:00Z,28.4330,-82.6670,0.487,1111122 
COMPS,ioos:station:USF.COMPS:ARP:1,2008-06-01T15:00:00Z,28.4330,-82.6670,0.501,1111122 
COMPS,ioos:station:USF.COMPS:ARP:1,2008-06-01T15:06:00Z,28.4330,-82.6670,0.513,1111122 
COMPS,ioos:station:USF.COMPS:ARP:1,2008-06-01T15:12:00Z,28.4330,-82.6670,0.525,1111122 
COMPS,ioos:station:USF.COMPS:ARP:1,2008-06-01T15:18:00Z,28.4330,-82.6670,0.531,1111122 
COMPS,ioos:station:USF.COMPS:ARP:1,2008-06-01T15:24:00Z,28.4330,-82.6670,0.531,1111122 
COMPS,ioos:station:USF.COMPS:ARP:1,2008-06-01T15:30:00Z,28.4330,-82.6670,0.539,1111122 
COMPS,ioos:station:USF.COMPS:ARP:1,2008-06-01T15:36:00Z,28.4330,-82.6670,0.539,1111122 
COMPS,ioos:station:USF.COMPS:ARP:1,2008-06-01T15:42:00Z,28.4330,-82.6670,0.536,1111122 
COMPS,ioos:station:USF.COMPS:ARP:1,2008-06-01T15:48:00Z,28.4330,-82.6670,0.536,1111122 
COMPS,ioos:station:USF.COMPS:ARP:1,2008-06-01T15:54:00Z,28.4330,-82.6670,0.531,1111122 
COMPS,ioos:station:USF.COMPS:ARP:1,2008-06-01T16:00:00Z,28.4330,-82.6670,0.525,1111122 
COMPS,ioos:station:USF.COMPS:ARP:1,2008-06-01T16:06:00Z,28.4330,-82.6670,0.512,1111122 
COMPS,ioos:station:USF.COMPS:ARP:1,2008-06-01T16:12:00Z,28.4330,-82.6670,0.499,1111122 
COMPS,ioos:station:USF.COMPS:ARP:1,2008-06-01T16:18:00Z,28.4330,-82.6670,0.488,1111122 
COMPS,ioos:station:USF.COMPS:ARP:1,2008-06-01T16:24:00Z,28.4330,-82.6670,0.474,1111122 
COMPS,ioos:station:USF.COMPS:ARP:1,2008-06-01T16:30:00Z,28.4330,-82.6670,0.461,1111122 
COMPS,ioos:station:USF.COMPS:ARP:1,2008-06-01T16:36:00Z,28.4330,-82.6670,0.451,1111122 
COMPS,ioos:station:USF.COMPS:ARP:1,2008-06-01T16:42:00Z,28.4330,-82.6670,0.439,1111122 
COMPS,ioos:station:USF.COMPS:ARP:1,2008-06-01T16:48:00Z,28.4330,-82.6670,0.422,1111122 
COMPS,ioos:station:USF.COMPS:ARP:1,2008-06-01T16:54:00Z,28.4330,-82.6670,0.408,1111122 
COMPS,ioos:station:USF.COMPS:ARP:1,2008-06-01T17:00:00Z,28.4330,-82.6670,0.393,1111122 
COMPS,ioos:station:USF.COMPS:ARP:1,2008-06-01T17:06:00Z,28.4330,-82.6670,0.379,1111122 
COMPS,ioos:station:USF.COMPS:ARP:1,2008-06-01T17:12:00Z,28.4330,-82.6670,0.363,1111122 
COMPS,ioos:station:USF.COMPS:ARP:1,2008-06-01T17:18:00Z,28.4330,-82.6670,0.347,1111122 
COMPS,ioos:station:USF.COMPS:ARP:1,2008-06-01T17:24:00Z,28.4330,-82.6670,0.339,1111122 
COMPS,ioos:station:USF.COMPS:ARP:1,2008-06-01T17:30:00Z,28.4330,-82.6670,0.324,1111122 
COMPS,ioos:station:USF.COMPS:ARP:1,2008-06-01T17:36:00Z,28.4330,-82.6670,0.309,1111122 
COMPS,ioos:station:USF.COMPS:ARP:1,2008-06-01T17:42:00Z,28.4330,-82.6670,0.295,1111122 
COMPS,ioos:station:USF.COMPS:ARP:1,2008-06-01T17:48:00Z,28.4330,-82.6670,0.282,1111122 
COMPS,ioos:station:USF.COMPS:ARP:1,2008-06-01T17:54:00Z,28.4330,-82.6670,0.265,1111122 
COMPS,ioos:station:USF.COMPS:ARP:1,2008-06-01T18:00:00Z,28.4330,-82.6670,0.25,1111122 
COMPS,ioos:station:USF.COMPS:ARP:1,2008-06-01T18:06:00Z,28.4330,-82.6670,0.233,1111122 
COMPS,ioos:station:USF.COMPS:ARP:1,2008-06-01T18:12:00Z,28.4330,-82.6670,0.217,1111122 
COMPS,ioos:station:USF.COMPS:ARP:1,2008-06-01T18:18:00Z,28.4330,-82.6670,0.201,1111122 
COMPS,ioos:station:USF.COMPS:ARP:1,2008-06-01T18:24:00Z,28.4330,-82.6670,0.184,1111122 
COMPS,ioos:station:USF.COMPS:ARP:1,2008-06-01T18:30:00Z,28.4330,-82.6670,0.167,1111122 
COMPS,ioos:station:USF.COMPS:ARP:1,2008-06-01T18:36:00Z,28.4330,-82.6670,0.15,1111122 
COMPS,ioos:station:USF.COMPS:ARP:1,2008-06-01T18:42:00Z,28.4330,-82.6670,0.134,1111122 
COMPS,ioos:station:USF.COMPS:ARP:1,2008-06-01T18:48:00Z,28.4330,-82.6670,0.115,1111122 
COMPS,ioos:station:USF.COMPS:ARP:1,2008-06-01T18:54:00Z,28.4330,-82.6670,0.095,1111122 
COMPS,ioos:station:USF.COMPS:ARP:1,2008-06-01T19:00:00Z,28.4330,-82.6670,0.076,1111122 
COMPS,ioos:station:USF.COMPS:ARP:1,2008-06-01T19:06:00Z,28.4330,-82.6670,0.057,1111122 
COMPS,ioos:station:USF.COMPS:ARP:1,2008-06-01T19:12:00Z,28.4330,-82.6670,0.038,1111122 
COMPS,ioos:station:USF.COMPS:ARP:1,2008-06-01T19:18:00Z,28.4330,-82.6670,0.019,1111122 
COMPS,ioos:station:USF.COMPS:ARP:1,2008-06-01T19:24:00Z,28.4330,-82.6670,0.001,1111122 
COMPS,ioos:station:USF.COMPS:ARP:1,2008-06-01T19:30:00Z,28.4330,-82.6670,-0.018,1111122 
COMPS,ioos:station:USF.COMPS:ARP:1,2008-06-01T19:36:00Z,28.4330,-82.6670,-0.038,1111122 
COMPS,ioos:station:USF.COMPS:ARP:1,2008-06-01T19:42:00Z,28.4330,-82.6670,-0.057,1111122 
COMPS,ioos:station:USF.COMPS:ARP:1,2008-06-01T19:48:00Z,28.4330,-82.6670,-0.077,1111122 
COMPS,ioos:station:USF.COMPS:ARP:1,2008-06-01T19:54:00Z,28.4330,-82.6670,-0.097,1111122 
COMPS,ioos:station:USF.COMPS:ARP:1,2008-06-01T20:00:00Z,28.4330,-82.6670,-0.118,1111122 
COMPS,ioos:station:USF.COMPS:ARP:1,2008-06-01T20:06:00Z,28.4330,-82.6670,-0.137,1111122 
COMPS,ioos:station:USF.COMPS:ARP:1,2008-06-01T20:12:00Z,28.4330,-82.6670,-0.155,1111122 
COMPS,ioos:station:USF.COMPS:ARP:1,2008-06-01T20:18:00Z,28.4330,-82.6670,-0.174,1111122 
COMPS,ioos:station:USF.COMPS:ARP:1,2008-06-01T20:24:00Z,28.4330,-82.6670,-0.192,1111122 
COMPS,ioos:station:USF.COMPS:ARP:1,2008-06-01T20:30:00Z,28.4330,-82.6670,-0.209,1111122 
COMPS,ioos:station:USF.COMPS:ARP:1,2008-06-01T20:36:00Z,28.4330,-82.6670,-0.226,1111122 
COMPS,ioos:station:USF.COMPS:ARP:1,2008-06-01T20:42:00Z,28.4330,-82.6670,-0.242,1111122 
COMPS,ioos:station:USF.COMPS:ARP:1,2008-06-01T20:48:00Z,28.4330,-82.6670,-0.257,1111122 
COMPS,ioos:station:USF.COMPS:ARP:1,2008-06-01T20:54:00Z,28.4330,-82.6670,-0.272,1111122 
COMPS,ioos:station:USF.COMPS:ARP:1,2008-06-01T21:00:00Z,28.4330,-82.6670,-0.287,1111122 
COMPS,ioos:station:USF.COMPS:ARP:1,2008-06-01T21:06:00Z,28.4330,-82.6670,-0.301,1111122 
COMPS,ioos:station:USF.COMPS:ARP:1,2008-06-01T21:12:00Z,28.4330,-82.6670,-0.314,1111122 
COMPS,ioos:station:USF.COMPS:ARP:1,2008-06-01T21:18:00Z,28.4330,-82.6670,-0.328,1111122 
COMPS,ioos:station:USF.COMPS:ARP:1,2008-06-01T21:24:00Z,28.4330,-82.6670,-0.342,1111122 
COMPS,ioos:station:USF.COMPS:ARP:1,2008-06-01T21:30:00Z,28.4330,-82.6670,-0.355,1111122 
COMPS,ioos:station:USF.COMPS:ARP:1,2008-06-01T21:36:00Z,28.4330,-82.6670,-0.368,1111122 
COMPS,ioos:station:USF.COMPS:ARP:1,2008-06-01T21:42:00Z,28.4330,-82.6670,-0.381,1111122 
COMPS,ioos:station:USF.COMPS:ARP:1,2008-06-01T21:48:00Z,28.4330,-82.6670,-0.393,1111122 
COMPS,ioos:station:USF.COMPS:ARP:1,2008-06-01T21:54:00Z,28.4330,-82.6670,-0.404,1111122 
COMPS,ioos:station:USF.COMPS:ARP:1,2008-06-01T22:00:00Z,28.4330,-82.6670,-0.415,1111122 
COMPS,ioos:station:USF.COMPS:ARP:1,2008-06-01T22:06:00Z,28.4330,-82.6670,-0.425,1111122 
COMPS,ioos:station:USF.COMPS:ARP:1,2008-06-01T22:12:00Z,28.4330,-82.6670,-0.435,1111122 
COMPS,ioos:station:USF.COMPS:ARP:1,2008-06-01T22:18:00Z,28.4330,-82.6670,-0.445,1111122 
COMPS,ioos:station:USF.COMPS:ARP:1,2008-06-01T22:24:00Z,28.4330,-82.6670,-0.454,1111122 
COMPS,ioos:station:USF.COMPS:ARP:1,2008-06-01T22:30:00Z,28.4330,-82.6670,-0.463,1111122 
COMPS,ioos:station:USF.COMPS:ARP:1,2008-06-01T22:36:00Z,28.4330,-82.6670,-0.471,1111122 
COMPS,ioos:station:USF.COMPS:ARP:1,2008-06-01T22:42:00Z,28.4330,-82.6670,-0.479,1111122 
COMPS,ioos:station:USF.COMPS:ARP:1,2008-06-01T22:48:00Z,28.4330,-82.6670,-0.486,1111122 
COMPS,ioos:station:USF.COMPS:ARP:1,2008-06-01T22:54:00Z,28.4330,-82.6670,-0.492,1111122 
COMPS,ioos:station:USF.COMPS:ARP:1,2008-06-01T23:00:00Z,28.4330,-82.6670,-0.497,1111122 
COMPS,ioos:station:USF.COMPS:ARP:1,2008-06-01T23:06:00Z,28.4330,-82.6670,-0.504,1111122 
COMPS,ioos:station:USF.COMPS:ARP:1,2008-06-01T23:12:00Z,28.4330,-82.6670,-0.511,1111122 
COMPS,ioos:station:USF.COMPS:ARP:1,2008-06-01T23:18:00Z,28.4330,-82.6670,-0.517,1111122 
COMPS,ioos:station:USF.COMPS:ARP:1,2008-06-01T23:24:00Z,28.4330,-82.6670,-0.522,1111122 
COMPS,ioos:station:USF.COMPS:ARP:1,2008-06-01T23:30:00Z,28.4330,-82.6670,-0.528,1111122 
COMPS,ioos:station:USF.COMPS:ARP:1,2008-06-01T23:36:00Z,28.4330,-82.6670,-0.534,1111122 
COMPS,ioos:station:USF.COMPS:ARP:1,2008-06-01T23:42:00Z,28.4330,-82.6670,-0.539,1111122 
COMPS,ioos:station:USF.COMPS:ARP:1,2008-06-01T23:48:00Z,28.4330,-82.6670,-0.544,1111122 
COMPS,ioos:station:USF.COMPS:ARP:1,2008-06-01T23:54:00Z,28.4330,-82.6670,-0.549,1111122 
COMPS,ioos:station:USF.COMPS:ARP:1,2008-06-02T00:00:00Z,28.4330,-82.6670,-0.552,1111122 
COMPS,ioos:station:USF.COMPS:ARP:1,2008-06-02T00:06:00Z,28.4330,-82.6670,-0.557,1111122 
COMPS,ioos:station:USF.COMPS:ARP:1,2008-06-02T00:12:00Z,28.4330,-82.6670,-0.561,1111122 
COMPS,ioos:station:USF.COMPS:ARP:1,2008-06-02T00:18:00Z,28.4330,-82.6670,-0.565,1111122 
COMPS,ioos:station:USF.COMPS:ARP:1,2008-06-02T00:24:00Z,28.4330,-82.6670,-0.569,1111122 
COMPS,ioos:station:USF.COMPS:ARP:1,2008-06-02T00:30:00Z,28.4330,-82.6670,-0.572,1111122 
COMPS,ioos:station:USF.COMPS:ARP:1,2008-06-02T00:36:00Z,28.4330,-82.6670,-0.575,1111122 
COMPS,ioos:station:USF.COMPS:ARP:1,2008-06-02T00:42:00Z,28.4330,-82.6670,-0.565,1111122 
COMPS,ioos:station:USF.COMPS:ARP:1,2008-06-02T00:48:00Z,28.4330,-82.6670,-0.563,1111122 
COMPS,ioos:station:USF.COMPS:ARP:1,2008-06-02T00:54:00Z,28.4330,-82.6670,-0.562,1111122 
COMPS,ioos:station:USF.COMPS:ARP:1,2008-06-02T01:00:00Z,28.4330,-82.6670,-0.562,1111122 
COMPS,ioos:station:USF.COMPS:ARP:1,2008-06-02T01:06:00Z,28.4330,-82.6670,-0.562,1111122 
COMPS,ioos:station:USF.COMPS:ARP:1,2008-06-02T01:12:00Z,28.4330,-82.6670,-0.562,1111122 
COMPS,ioos:station:USF.COMPS:ARP:1,2008-06-02T01:18:00Z,28.4330,-82.6670,-0.562,1111122 
COMPS,ioos:station:USF.COMPS:ARP:1,2008-06-02T01:24:00Z,28.4330,-82.6670,-0.564,1111122 
COMPS,ioos:station:USF.COMPS:ARP:1,2008-06-02T01:30:00Z,28.4330,-82.6670,-0.569,1111122 
COMPS,ioos:station:USF.COMPS:ARP:1,2008-06-02T01:36:00Z,28.4330,-82.6670,-0.569,1111122 
COMPS,ioos:station:USF.COMPS:ARP:1,2008-06-02T01:42:00Z,28.4330,-82.6670,-0.563,1111122 
COMPS,ioos:station:USF.COMPS:ARP:1,2008-06-02T01:48:00Z,28.4330,-82.6670,-0.556,1111122 
COMPS,ioos:station:USF.COMPS:ARP:1,2008-06-02T01:54:00Z,28.4330,-82.6670,-0.547,1111122 
COMPS,ioos:station:USF.COMPS:ARP:1,2008-06-02T02:00:00Z,28.4330,-82.6670,-0.537,1111122 
COMPS,ioos:station:USF.COMPS:ARP:1,2008-06-02T02:06:00Z,28.4330,-82.6670,-0.525,1111122 
COMPS,ioos:station:USF.COMPS:ARP:1,2008-06-02T02:12:00Z,28.4330,-82.6670,-0.513,1111122 
COMPS,ioos:station:USF.COMPS:ARP:1,2008-06-02T02:18:00Z,28.4330,-82.6670,-0.497,1111122 
COMPS,ioos:station:USF.COMPS:ARP:1,2008-06-02T02:24:00Z,28.4330,-82.6670,-0.48,1111122 
COMPS,ioos:station:USF.COMPS:ARP:1,2008-06-02T02:30:00Z,28.4330,-82.6670,-0.459,1111122 
COMPS,ioos:station:USF.COMPS:ARP:1,2008-06-02T02:36:00Z,28.4330,-82.6670,-0.436,1111122 
COMPS,ioos:station:USF.COMPS:ARP:1,2008-06-02T02:42:00Z,28.4330,-82.6670,-0.412,1111122 
COMPS,ioos:station:USF.COMPS:ARP:1,2008-06-02T02:48:00Z,28.4330,-82.6670,-0.379,1111122 
COMPS,ioos:station:USF.COMPS:ARP:1,2008-06-02T02:54:00Z,28.4330,-82.6670,-0.347,1111122 